Regional Weather Roundup
Issued by NWS

Home | Current Version | Previous Version | Graphics & Text | Print | Product List | Glossary On
Versions: 1 2 3 4 5 6 7 8 9 10 11 12 13 14 15 16 17 18 19 20 21 22 23 24 25 26 27 28 29 30 31 32 33 34 35 36 37 38 39 40 41 42 43 44 45 46 47 48 49 50
000
ASUS43 KLOT 181710
RWRIL

ILLINOIS REGIONAL WEATHER ROUNDUP
NATIONAL WEATHER SERVICE CHICAGO/ROMEOVILLE IL
1100 AM CST THU DEC 18 2014

NOTE: "FAIR" INDICATES FEW OR NO CLOUDS BELOW 12,000 FEET WITH NO
SIGNIFICANT WEATHER AND/OR OBSTRUCTIONS TO VISIBILITY.

* THESE STATIONS ARE NOT UNDER NWS QUALITY CONTROL. THEY ALSO MAY NOT
  REPORT WEATHER SUCH AS PRECIPITATION OR FOG.

ILZ001-002-007-009-015-016-024-181800-
NORTHWEST ILLINOIS

CITY           SKY/WX    TMP DP  RH WIND       PRES   REMARKS
MOLINE         CLOUDY    25  18  74 CALM      30.30F
STERLING*      CLOUDY    25  16  68 NW3       30.30F
SAVANNA*       PTSUNNY   22  19  85 CALM      30.31F
$$

ILZ003-004-008-010-011-017-018-181800-
NORTH CENTRAL ILLINOIS

CITY           SKY/WX    TMP DP  RH WIND       PRES   REMARKS
ROCKFORD       CLOUDY    23  15  71 W3        30.32F
FREEPORT*      PTSUNNY   21  16  81 CALM      30.31F
ROCHELLE*      CLOUDY    23  17  79 CALM      30.30F
DE KALB*       CLOUDY    23  16  73 NW3       30.28F
PERU*          CLOUDY    25  20  81 NW5       30.30F WCI  19
$$

ILZ005-006-012>014-019>023-181800-
NORTHEAST ILLINOIS

CITY           SKY/WX    TMP DP  RH WIND       PRES   REMARKS
CHICAGO-OHARE  CLOUDY    25  16  68 W7        30.28F WCI  17
CHICAGO-MIDWAY CLOUDY    27  17  66 SW6       30.29F WCI  20
AURORA         CLOUDY    25  16  68 CALM      30.30F
LANSING*       CLOUDY    25  18  73 W6        30.30F WCI  18
JOLIET*        CLOUDY    25  17  73 W3        30.30F
WAUKEGAN       CLOUDY    24  18  77 W5        30.26F WCI  18
DUPAGE AIRPORT CLOUDY    25  16  68 W6        30.28F WCI  18
KANKAKEE*      CLOUDY    26  19  75 W3        30.30F
WHEELING       CLOUDY    24  16  71 SW6       30.30F WCI  17
MORRIS*        CLOUDY    25  19  79 CALM      30.29F
ROMEOVILLE*    CLOUDY    25  18  74 NW6       30.29F WCI  18
NORTHERLY ISL    N/A     26  17  68 W5          N/A  WCI  21
$$

LMZ740>746-181800-
SOUTHERN LAKE MICHIGAN

STATION/POSITION SKY/WX   TEMP    WIND        PRES    VSBY  WAVE
                          AIR SEA DIR/SP/G                  HT/PER
                          (F)     (DEG/KT/KT) (MB)    (MI)  (FT/S)
WAUKEGAN HARBOR            23     270/  9/ 15   N/A
HARRISON CRIB              25     260/  8/ 11   N/A
BURNHAM HARBOR             26     270/  5/  9   N/A
CALUMET HARBOR             25     210/  8/ 10 1024.7F
$$

ILZ025>027-034>036-040-047-049-050-058-095>099-181800-
WEST-CENTRAL ILLINOIS

CITY           SKY/WX    TMP DP  RH WIND       PRES   REMARKS
QUINCY         CLOUDY    28  23  81 CALM      30.29F
GALESBURG*     CLOUDY    25  20  80 CALM      30.30F
MACOMB*        CLOUDY    25  22  87 CALM      30.33S
JACKSONVILLE*  LGT SNOW  29  25  85 E3        30.30F
PITTSFIELD*    LGT SNOW  28  25  87 SE5       30.31S WCI  23
$$

ILZ028>032-037-038-041>044-048-051>054-059>061-181800-
CENTRAL ILLINOIS

CITY           SKY/WX    TMP DP  RH WIND       PRES   REMARKS
PONTIAC        CLOUDY    25  21  87 CALM      30.31F
BLOOMINGTON    CLOUDY    25  21  86 SW3       30.29F
DECATUR        LGT SNOW  27  22  81 MISG      30.30F
PEORIA         CLOUDY    27  20  75 CALM      30.30F
LACON*         CLOUDY    23  17  78 CALM      30.31F
LINCOLN*       LGT RAIN  27  25  89 CALM      30.32F
SPRINGFIELD    CLOUDY    29  24  82 CALM      30.31F
TAYLORVILLE    CLOUDY    28  23  80 CALM      30.30F
$$

ILZ033-039-045-046-055>057-062-063-181800-
EAST-CENTRAL ILLINOIS

CITY           SKY/WX    TMP DP  RH WIND       PRES   REMARKS
CHAMPAIGN      LGT SNOW  26  21  81 CALM      30.30F
DANVILLE*      CLOUDY    26  20  76 CALM      30.27F
RANTOUL*       CLOUDY    28  23  81 SW5       30.29F WCI  23
MATTOON        CLOUDY    28  20  71 NE5       30.29F WCI  23
PARIS*         CLOUDY    28  22  79 CALM      30.31F
$$

ILZ079-100>102-181800-
SOUTHWEST ILLINOIS

CITY           SKY/WX    TMP DP  RH WIND       PRES   REMARKS
ALTON          FLURRIES  30  25  80 VRB5      30.31F WCI  25
BELLEVILLE     PTSUNNY   31  28  86 E3        30.30F
CAHOKIA*       LGT SNOW  33  28  81 E3        30.30F
SPARTA*          N/A     31  29  92 NE3       30.31S
$$

ILZ064>066-069>071-074>076-080>082-084>086-088>090-092>094-181800-
SOUTH-CENTRAL ILLINOIS

CITY           SKY/WX    TMP DP  RH WIND       PRES   REMARKS
CARBONDALE     CLOUDY    32  29  88 E3        30.31S FOG
CAIRO*         CLOUDY    37  37  99 E5        30.29F FOG     WCI  33
EFFINGHAM*     CLOUDY    29  20  68 CALM      30.32F
MARION         LGT SNOW  32  30  93 NE5       30.31F WCI  27
MT. VERNON     CLOUDY    30  23  74 CALM      30.31F
CENTRALIA*     CLOUDY    29  24  81 CALM      30.30F
SALEM*         CLOUDY    31  26  81 CALM      30.31S HAZE
METROPOLIS*    CLOUDY    33  33 100 E3        30.29F FOG
$$

ILZ067-068-072-073-078-083-087-091-181800-
SOUTHEAST ILLINOIS

CITY           SKY/WX    TMP DP  RH WIND       PRES   REMARKS
LAWRENCEVILLE  CLOUDY    29  23  78 CALM      30.31F HAZE
FLORA*         PTSUNNY   28  24  82 CALM      30.31F
FAIRFIELD*     CLOUDY    30  25  81 CALM      30.29F
HARRISBURG*    CLOUDY    32  29  89 CALM      30.31F
ROBINSON*      CLOUDY    28  23  81 N3        30.32F
CARMI*         CLOUDY    33  29  86 CALM      30.30F
$$

ABBREVIATIONS USED IN REMARKS
   TC - TEMPERATURE IN CELSIUS
  WCI - WIND CHILL INDEX
   HX - HEAT INDEX
  VSB - VISIBILITY
$$




USA.gov is the U.S. government's official web portal to all federal, state and local government web resources and services.